This demonstration page uses our WeatherBlox Daily Observations layout. Learn more.

Left ArrowRight Arrow

Hourly Observations for June 27, 2015

Temp ( °F °C ) Dew Point ( °F °C ) Humidity (%) Winds ( mph kmh ) Pressure ( in mb ) Visibility ( mi km ) Precip ( " mm )
12:53 am 00:53 Clear 66 18.9 42 5.6 42 42 NE 7 11 29.98 1015 10 16 0.00 0.00
1:53 am 01:53 Clear 64 17.8 45 7.2 50 50 ENE 6 9 29.99 1016 10 16 0.00 0.00
2:53 am 02:53 Clear 63 17.2 43 6.1 48 48 ENE 7 11 29.99 1016 10 16 0.00 0.00
3:53 am 03:53 Clear 62 16.7 45 7.2 54 54 E 6 9 29.98 1015 10 16 0.00 0.00
4:53 am 04:53 Clear 63 17.2 45 7.2 52 52 ENE 3 6 29.99 1016 10 16 0.00 0.00
5:53 am 05:53 Sunny 60 15.6 46 7.8 60 60 ESE 3 6 30.00 1016 10 16 0.00 0.00
6:53 am 06:53 Sunny 66 18.9 49 9.4 54 54 Calm 30.01 1016 10 16 0.00 0.00
7:53 am 07:53 Sunny 70 21.1 49 9.4 47 47 E 7 11 30.01 1016 10 16 0.00 0.00
8:53 am 08:53 Sunny 76 24.4 51 10.6 42 42 E 7 11 30.01 1016 10 16 0.00 0.00
9:53 am 09:53 Sunny 84 28.9 51 10.6 32 32 E 16 26 30.00 1016 10 16 0.00 0.00
10:53 am 10:53 Sunny 89 31.7 50 10 26 26 E 17 28 30.00 1016 10 16 0.00 0.00
11:53 am 11:53 Sunny 91 32.8 50 10 25 25 E 20 31 29.99 1016 10 16 0.00 0.00
12:53 pm 12:53 Sunny 96 35.6 50 10 21 21 E 10 17 29.96 1015 10 16 0.00 0.00
1:53 pm 13:53 Sunny 97 36.1 46 7.8 17 17 S 14 22 29.95 1014 10 16 0.00 0.00
2:53 pm 14:53 Sunny 98 36.7 43 6.1 15 15 W 10 17 29.93 1014 10 16 0.00 0.00
3:53 pm 15:53 Sunny 99 37.2 43 6.1 15 15 NW 10 17 29.91 1013 10 16 0.00 0.00
4:53 pm 16:53 Sunny 98 36.7 43 6.1 15 15 Calm 29.90 1013 10 16 0.00 0.00
5:53 pm 17:53 Sunny 98 36.7 45 7.2 16 16 E 9 15 29.89 1012 10 16 0.00 0.00
6:53 pm 18:53 Sunny 97 36.1 46 7.8 17 17 VRB 7 11 29.88 1012 10 16 0.00 0.00
7:53 pm 19:53 Sunny 93 33.9 50 10 23 23 E 12 19 29.87 1012 10 16 0.00 0.00
8:53 pm 20:53 Sunny 86 30 52 11.1 31 31 E 8 13 29.88 1012 10 16 0.00 0.00
9:53 pm 21:53 Clear 80 26.7 51 10.6 37 37 ESE 9 15 29.88 1012 10 16 0.00 0.00
10:53 pm 22:53 Clear 80 26.7 49 9.4 34 34 S 10 17 29.88 1012 10 16 0.00 0.00
11:53 pm 23:53 Clear 75 23.9 49 9.4 40 40 ESE 3 6 29.89 1012 10 16 0.00 0.00

Powered by AerisWeather